User: anonymous   Login
Location: Leuk
(46.3174°N, 7.6341°E)
Time: 18:39:53
(UTC+00:00)
Language:

MOS 1 Rocket - Orbit

View from above orbital plane
View from above orbital plane
View from above satellite
View from above satellite

Ground track
Ground track

The orbit data is extracted from the following two-line orbital elements,

1 17528U 87018B   21212.73328136  .00000070  00000-0  25133-4 0  9993
2 17528  97.4141  19.4959 0150127 258.5249  99.9057 14.51071703797572
Epoch (UTC): 31 July 2021 17:35:55
Eccentricity: 0.0150127
inclination: 97.4141°
perigee height: 615 km
apogee height: 829 km
right ascension of ascending node: 19.4959°
argument of perigee: 258.5249°
revolutions per day: 14.51071703
mean anomaly at epoch: 99.9057°
orbit number at epoch: 79757

The dashed part of the orbit path shows where the satellite is in the earth's shadow,  

DLR